| time (UTC) | temp F | wind direction | speed knots | gust knots | rain 1hr in | rain 24hr in | rain mn in | humidity % | barometer mb |
| 20260506170516 | 45 | 270 | 6.1 | 12.2 | 0.00 | 0.00 | 0.00 | 49 | 1015.3 |
| 20260506165516 | 45 | 315 | 9.6 | 17.4 | 0.00 | 0.00 | 0.00 | 51 | 1015.4 |
| 20260506164518 | 44 | 293 | 8.7 | 14.8 | 0.00 | 0.00 | 0.00 | 50 | 1015.3 |
| 20260506163516 | 44 | 315 | 5.2 | 10.4 | 0.00 | 0.00 | 0.00 | 53 | 1015.4 |
| 20260506162516 | 44 | 270 | 6.1 | 13.9 | 0.00 | 0.00 | 0.00 | 50 | 1015.2 |
| 20260506161536 | 43 | 338 | 6.1 | 10.4 | 0.00 | 0.00 | 0.00 | 52 | 1015.1 |
| 20260506160516 | 44 | 293 | 6.1 | 11.3 | 0.00 | 0.00 | 0.00 | 53 | 1015.4 |
| 20260506155516 | 43 | 315 | 7.8 | 13.9 | 0.00 | 0.00 | 0.00 | 53 | 1015.4 |
| 20260506154516 | 43 | 315 | 7.0 | 13.0 | 0.00 | 0.00 | 0.00 | 53 | 1015.4 |
| 20260506153518 | 43 | 315 | 7.0 | 13.9 | 0.00 | 0.00 | 0.00 | 55 | 1015.2 |
| 20260506152518 | 43 | 315 | 7.0 | 11.3 | 0.00 | 0.00 | 0.00 | 51 | 1015.2 |
| 20260506151516 | 43 | 315 | 5.2 | 9.6 | 0.00 | 0.00 | 0.00 | 53 | 1015.2 |
| 20260506150516 | 43 | 338 | 7.0 | 13.0 | 0.00 | 0.00 | 0.00 | 57 | 1015.3 |
| 20260506145536 | 42 | 315 | 7.0 | 12.2 | 0.00 | 0.00 | 0.00 | 55 | 1015.2 |
| 20260506144516 | 42 | 315 | 6.1 | 11.3 | 0.00 | 0.00 | 0.00 | 55 | 1015.4 |
| 20260506143516 | 42 | 315 | 5.2 | 11.3 | 0.00 | 0.00 | 0.00 | 58 | 1015.3 |
| 20260506142516 | 41 | 315 | 7.0 | 13.0 | 0.00 | 0.00 | 0.00 | 55 | 1015.0 |
| 20260506141516 | 42 | 338 | 6.1 | 10.4 | 0.00 | 0.00 | 0.00 | 58 | 1015.0 |
| 20260506140516 | 41 | 315 | 6.1 | 12.2 | 0.00 | 0.00 | 0.00 | 58 | 1015.0 |
| 20260506135516 | 40 | 270 | 7.8 | 15.6 | 0.00 | 0.00 | 0.00 | 56 | 1014.8 |
| 20260506134516 | 41 | 293 | 4.3 | 8.7 | 0.00 | 0.00 | 0.00 | 59 | 1014.8 |
| 20260506133516 | 40 | 315 | 6.1 | 12.2 | 0.00 | 0.00 | 0.00 | 59 | 1014.6 |
| 20260506132516 | 40 | 338 | 5.2 | 9.6 | 0.00 | 0.00 | 0.00 | 60 | 1014.7 |
| 20260506131516 | 39 | 338 | 6.1 | 9.6 | 0.00 | 0.00 | 0.00 | 61 | 1014.5 |
| 20260506130516 | 39 | 293 | 5.2 | 10.4 | 0.00 | 0.00 | 0.00 | 63 | 1014.3 |
| 20260506125516 | 38 | 315 | 5.2 | 8.7 | 0.00 | 0.00 | 0.00 | 66 | 1014.2 |
| 20260506124536 | 38 | 315 | 3.5 | 7.8 | 0.00 | 0.00 | 0.00 | 68 | 1014.2 |
| 20260506123516 | 37 | 315 | 3.5 | 8.7 | 0.00 | 0.00 | 0.00 | 68 | 1013.8 |
| 20260506122536 | 37 | 293 | 3.5 | 7.0 | 0.00 | 0.00 | 0.00 | 69 | 1013.7 |
| 20260506121536 | 36 | 315 | 3.5 | 7.0 | 0.00 | 0.00 | 0.00 | 70 | 1013.8 |
| 20260506120536 | 35 | 293 | 3.5 | 7.0 | 0.00 | 0.00 | 0.00 | 72 | 1013.7 |
| 20260506115516 | 35 | 293 | 3.5 | 7.8 | 0.00 | 0.00 | 0.00 | 74 | 1013.7 |
| 20260506114516 | 34 | 293 | 3.5 | 7.8 | 0.00 | 0.00 | 0.00 | 75 | 1013.6 |
| 20260506113516 | 34 | 293 | 3.5 | 7.0 | 0.00 | 0.00 | 0.00 | 75 | 1013.3 |
| 20260506112516 | 34 | 293 | 3.5 | 7.0 | 0.00 | 0.00 | 0.00 | 74 | 1013.1 |
| 20260506111516 | 34 | 293 | 3.5 | 6.1 | 0.00 | 0.00 | 0.00 | 74 | 1012.9 |
| 20260506110516 | 34 | 293 | 2.6 | 6.1 | 0.00 | 0.00 | 0.00 | 75 | 1012.9 |
| 20260506105516 | 34 | 293 | 2.6 | 6.1 | 0.00 | 0.00 | 0.00 | 74 | 1012.9 |
| 20260506104516 | 34 | 293 | 2.6 | 6.1 | 0.00 | 0.00 | 0.00 | 75 | 1012.9 |
| 20260506103516 | 33 | 293 | 3.5 | 7.0 | 0.00 | 0.00 | 0.00 | 76 | 1012.8 |
| 20260506102516 | 33 | 293 | 2.6 | 6.1 | 0.00 | 0.00 | 0.00 | 76 | 1012.7 |
| 20260506101516 | 34 | 293 | 1.7 | 5.2 | 0.00 | 0.00 | 0.00 | 76 | 1012.8 |
| 20260506100516 | 34 | 293 | 2.6 | 4.3 | 0.00 | 0.00 | 0.00 | 75 | 1012.4 |
| 20260506095536 | 33 | 293 | 1.7 | 3.5 | 0.00 | 0.00 | 0.00 | 76 | 1012.4 |
| 20260506094536 | 34 | 293 | 1.7 | 2.6 | 0.00 | 0.00 | 0.00 | 75 | 1012.4 |
| 20260506093515 | 34 | 293 | 1.7 | 3.5 | 0.00 | 0.00 | 0.00 | 75 | 1012.3 |
| 20260506092516 | 34 | 293 | 1.7 | 5.2 | 0.00 | 0.00 | 0.00 | 75 | 1012.2 |
| 20260506091515 | 34 | 270 | 1.7 | 2.6 | 0.00 | 0.00 | 0.00 | 75 | 1012.3 |
| 20260506090515 | 35 | 293 | 1.7 | 2.6 | 0.00 | 0.00 | 0.00 | 73 | 1012.5 |
| 20260506085516 | 36 | 293 | 1.7 | 2.6 | 0.00 | 0.00 | 0.00 | 71 | 1012.3 |
| 20260506084516 | 36 | 293 | 2.6 | 3.5 | 0.00 | 0.00 | 0.00 | 70 | 1012.2 |
| 20260506083515 | 36 | 293 | 2.6 | 4.3 | 0.00 | 0.00 | 0.00 | 71 | 1012.2 |
| 20260506082515 | 36 | 293 | 2.6 | 7.0 | 0.00 | 0.00 | 0.00 | 73 | 1012.3 |
| 20260506081516 | 35 | 293 | 3.5 | 6.1 | 0.00 | 0.00 | 0.00 | 76 | 1012.1 |
| 20260506080516 | 33 | 293 | 3.5 | 6.1 | 0.00 | 0.00 | 0.00 | 80 | 1011.9 |
| 20260506073516 | 33 | 270 | 2.6 | 3.5 | 0.00 | 0.00 | 0.00 | 78 | 1011.8 |
| 20260506072536 | 34 | 270 | 1.7 | 3.5 | 0.00 | 0.00 | 0.00 | 76 | 1011.6 |
| 20260506071516 | 35 | 270 | 1.7 | 2.6 | 0.00 | 0.00 | 0.00 | 74 | 1011.4 |
| 20260506070516 | 35 | 270 | 1.7 | 3.5 | 0.00 | 0.00 | 0.00 | 74 | 1011.4 |
| 20260506061515 | 37 | 270 | 1.7 | 2.6 | 0.00 | 0.00 | 0.00 | 69 | 1011.6 |
| 20260506060515 | 37 | 270 | 1.7 | 2.6 | 0.00 | 0.00 | 0.00 | 69 | 1011.9 |
| 20260506050555 | 39 | 270 | 1.7 | 1.7 | 0.00 | 0.00 | 0.00 | 60 | 1011.4 |
| 20260506044516 | 40 | 293 | 1.7 | 2.6 | 0.00 | 0.00 | 0.00 | 58 | 1011.1 |
| 20260506043516 | 41 | 293 | 0.9 | 2.6 | 0.00 | 0.00 | 0.00 | 56 | 1011.3 |
| 20260506042516 | 41 | 293 | 0.9 | 1.7 | 0.00 | 0.00 | 0.00 | 56 | 1011.2 |
| 20260506041516 | 41 | 293 | 1.7 | 1.7 | 0.00 | 0.00 | 0.00 | 55 | 1011.4 |
| 20260506040516 | 41 | 293 | 0.9 | 1.7 | 0.00 | 0.00 | 0.00 | 54 | 1011.2 |
| 20260506035516 | 41 | 293 | 0.9 | 1.7 | 0.00 | 0.00 | 0.00 | 54 | 1011.1 |
| 20260506034516 | 42 | 293 | 1.7 | 2.6 | 0.00 | 0.00 | 0.00 | 55 | 1011.2 |
| 20260506033516 | 42 | 293 | 0.9 | 1.7 | 0.00 | 0.00 | 0.00 | 53 | 1011.1 |
| 20260506032516 | 42 | 0.0 | 1.7 | 0.00 | 0.00 | 0.00 | 52 | 1011.2 | |
| 20260506031516 | 42 | 0.0 | 1.7 | 0.00 | 0.00 | 0.00 | 52 | 1011.0 | |
| 20260506030516 | 43 | 293 | 0.9 | 1.7 | 0.00 | 0.00 | 0.00 | 51 | 1011.2 |
| 20260506025516 | 44 | 293 | 0.9 | 1.7 | 0.00 | 0.00 | 0.00 | 49 | 1011.1 |
| 20260506024536 | 44 | 293 | 0.9 | 2.6 | 0.00 | 0.00 | 0.00 | 48 | 1011.0 |
| 20260506023516 | 44 | 315 | 0.9 | 2.6 | 0.00 | 0.00 | 0.00 | 48 | 1011.0 |
| 20260506022516 | 44 | 315 | 0.9 | 4.3 | 0.00 | 0.00 | 0.00 | 47 | 1010.7 |
| 20260506021516 | 45 | 315 | 1.7 | 4.3 | 0.00 | 0.00 | 0.00 | 47 | 1010.6 |
| 20260506020536 | 45 | 315 | 0.9 | 2.6 | 0.00 | 0.00 | 0.00 | 45 | 1010.4 |
| 20260506015516 | 45 | 315 | 1.7 | 3.5 | 0.00 | 0.00 | 0.00 | 45 | 1010.3 |
| 20260506014516 | 45 | 315 | 1.7 | 3.5 | 0.00 | 0.00 | 0.00 | 45 | 1010.1 |
| 20260506013536 | 46 | 315 | 1.7 | 4.3 | 0.00 | 0.00 | 0.00 | 45 | 1009.9 |
| 20260506012516 | 46 | 315 | 1.7 | 2.6 | 0.00 | 0.00 | 0.00 | 43 | 1009.9 |
| 20260506011516 | 46 | 315 | 2.6 | 4.3 | 0.00 | 0.00 | 0.00 | 44 | 1009.9 |
| 20260506010516 | 46 | 315 | 1.7 | 4.3 | 0.00 | 0.00 | 0.00 | 44 | 1009.5 |
| 20260506005516 | 46 | 315 | 2.6 | 4.3 | 0.00 | 0.00 | 0.00 | 44 | 1009.6 |
| 20260506004556 | 47 | 315 | 3.5 | 7.8 | 0.00 | 0.00 | 0.00 | 43 | 1009.5 |
| 20260506003516 | 48 | 315 | 3.5 | 7.8 | 0.00 | 0.00 | 0.00 | 42 | 1009.4 |
| 20260506002516 | 48 | 315 | 5.2 | 10.4 | 0.00 | 0.00 | 0.00 | 42 | 1009.5 |
| 20260506001515 | 48 | 293 | 2.6 | 5.2 | 0.00 | 0.00 | 0.00 | 44 | 1009.4 |
| 20260506000516 | 49 | 315 | 4.3 | 11.3 | 0.00 | 0.00 | 0.00 | 42 | 1009.3 |
| 20260505235516 | 49 | 293 | 6.1 | 12.2 | 0.00 | 0.00 | 0.00 | 41 | 1009.2 |
| 20260505234516 | 49 | 315 | 5.2 | 13.9 | 0.00 | 0.00 | 0.00 | 39 | 1009.3 |
| 20260505233516 | 49 | 315 | 7.0 | 13.0 | 0.00 | 0.00 | 0.00 | 41 | 1009.2 |
| 20260505232556 | 50 | 293 | 5.2 | 11.3 | 0.00 | 0.00 | 0.00 | 39 | 1009.1 |
| 20260505231515 | 50 | 293 | 5.2 | 11.3 | 0.00 | 0.00 | 0.00 | 39 | 1009.1 |
| 20260505230516 | 49 | 293 | 8.7 | 17.4 | 0.00 | 0.00 | 0.00 | 38 | 1009.2 |
| 20260505225516 | 50 | 270 | 7.8 | 13.0 | 0.00 | 0.00 | 0.00 | 38 | 1009.3 |
| 20260505224516 | 50 | 270 | 7.8 | 13.9 | 0.00 | 0.00 | 0.00 | 38 | 1009.3 |
| 20260505223515 | 50 | 315 | 7.0 | 14.8 | 0.00 | 0.00 | 0.00 | 39 | 1009.3 |
| 20260505222515 | 50 | 293 | 7.0 | 13.9 | 0.00 | 0.00 | 0.00 | 37 | 1009.0 |
| 20260505221515 | 50 | 293 | 5.2 | 10.4 | 0.00 | 0.00 | 0.00 | 38 | 1009.2 |
| 20260505220515 | 51 | 293 | 7.8 | 13.0 | 0.00 | 0.00 | 0.00 | 36 | 1009.0 |
| 20260505215536 | 51 | 270 | 6.1 | 13.0 | 0.00 | 0.00 | 0.00 | 38 | 1009.1 |
| 20260505214515 | 50 | 315 | 7.8 | 14.8 | 0.00 | 0.00 | 0.00 | 39 | 1009.0 |
| 20260505213516 | 50 | 270 | 7.8 | 16.5 | 0.00 | 0.00 | 0.00 | 40 | 1009.1 |
| 20260505212516 | 51 | 270 | 7.8 | 14.8 | 0.00 | 0.00 | 0.00 | 37 | 1009.1 |
| 20260505211535 | 53 | 270 | 8.7 | 17.4 | 0.00 | 0.00 | 0.00 | 36 | 1009.2 |
| 20260505210515 | 52 | 270 | 7.0 | 13.9 | 0.00 | 0.00 | 0.00 | 39 | 1009.1 |
| 20260505205515 | 51 | 270 | 5.2 | 11.3 | 0.00 | 0.00 | 0.00 | 38 | 1009.1 |
| 20260505204515 | 51 | 293 | 7.8 | 13.9 | 0.00 | 0.00 | 0.00 | 38 | 1009.3 |
| 20260505203515 | 51 | 293 | 7.0 | 13.9 | 0.00 | 0.00 | 0.00 | 40 | 1009.5 |
| 20260505202516 | 50 | 293 | 8.7 | 14.8 | 0.00 | 0.00 | 0.00 | 39 | 1009.4 |
| 20260505201515 | 50 | 293 | 9.6 | 16.5 | 0.00 | 0.00 | 0.00 | 38 | 1009.3 |
| 20260505200515 | 50 | 293 | 8.7 | 15.6 | 0.00 | 0.00 | 0.00 | 39 | 1009.5 |
| 20260505195537 | 51 | 270 | 7.8 | 15.6 | 0.00 | 0.00 | 0.00 | 40 | 1009.5 |
| 20260505194515 | 50 | 293 | 7.0 | 13.0 | 0.00 | 0.00 | 0.00 | 40 | 1009.5 |
| 20260505193515 | 52 | 270 | 9.6 | 22.6 | 0.00 | 0.00 | 0.00 | 37 | 1009.7 |
| 20260505192516 | 51 | 270 | 7.8 | 13.9 | 0.00 | 0.00 | 0.00 | 38 | 1009.4 |
| 20260505191515 | 49 | 270 | 7.0 | 13.9 | 0.00 | 0.00 | 0.00 | 41 | 1009.5 |
| 20260505190515 | 50 | 248 | 7.0 | 14.8 | 0.00 | 0.00 | 0.00 | 37 | 1009.5 |
| 20260505185537 | 51 | 270 | 8.7 | 16.5 | 0.00 | 0.00 | 0.00 | 38 | 1009.6 |
| 20260505184515 | 51 | 270 | 7.0 | 12.2 | 0.00 | 0.00 | 0.00 | 35 | 1009.6 |
| 20260505183515 | 51 | 270 | 9.6 | 18.2 | 0.00 | 0.00 | 0.00 | 34 | 1009.5 |
| 20260505182515 | 51 | 293 | 7.8 | 14.8 | 0.00 | 0.00 | 0.00 | 37 | 1009.4 |
| 20260505181515 | 50 | 293 | 9.6 | 17.4 | 0.00 | 0.00 | 0.00 | 35 | 1009.2 |
| 20260505180515 | 52 | 293 | 8.7 | 19.1 | 0.00 | 0.00 | 0.00 | 36 | 1009.3 |
| 20260505175517 | 51 | 293 | 7.8 | 16.5 | 0.00 | 0.00 | 0.00 | 37 | 1009.1 |
| 20260505174517 | 51 | 315 | 7.8 | 13.0 | 0.00 | 0.00 | 0.00 | 38 | 1009.2 |
| 20260505173517 | 50 | 270 | 7.8 | 13.0 | 0.00 | 0.00 | 0.00 | 36 | 1009.3 |
| 20260505172517 | 50 | 270 | 10.4 | 17.4 | 0.00 | 0.00 | 0.00 | 38 | 1009.2 |
| 20260505171517 | 49 | 270 | 7.0 | 17.4 | 0.00 | 0.00 | 0.00 | 40 | 1009.3 |